Lexington Weather

Lexington, Massachusetts, USA

25°F
1/21/2021 9:55am 
  • Lexington Conditions: Clear
  • Temperature: 24.6°F / -4.1°CWarmer 2.1°F than last hour.
  • Dew Point: 13.5°FIncreased 1.3°Fsince last hour.
  • Relative Humidity: 62%Decreased 2.0% since last hour.
  • Wind: Calm, 10-min avg: Calm, gust: 10 mph
  • Barometer: 29.78 in Steady
  • Visibility: 10 miles
  • Snow Today: Trace
  •   

Regional Weather Roundup
for Boston / Norton, MA

        
000
ASUS41 KBOX 150404
RWRBOX

REGIONAL WEATHER ROUNDUP
NATIONAL WEATHER SERVICE BOSTON/NORTON MA
1100 PM EST THU JAN 14 2021

NOTE:  "FAIR" INDICATES FEW OR NO CLOUDS BELOW 12,000 FEET WITH NO 
SIGNIFICANT WEATHER AND/OR OBSTRUCTIONS TO VISIBILITY.

MAZALL-150500-
EASTERN MASSACHUSETTS
  
CITY           SKY/WX    TMP DP  RH WIND       PRES   REMARKS
BOSTON         DRIZZLE   34  33  96 N6        29.92R FOG     WCI  29  
BEVERLY        CLOUDY    34  33  96 N5        29.91R FOG     WCI  30  
LAWRENCE       CLOUDY    34  33  96 CALM      29.93S FOG              
BEDFORD        CLOUDY    34  32  92 NW5       29.91R FOG     WCI  30  
BLUE HILL        N/A     33  33 100 N6        29.87R WCI  28          
NORWOOD        CLOUDY    36  33  89 NW5       29.91S FOG              
MARSHFIELD     CLOUDY    39  39 100 CALM      29.90R FOG              
PLYMOUTH       CLOUDY    38  36  92 N7        29.88R                  
TAUNTON        CLOUDY    39  35  86 VRB3      29.89S FOG              
NEW BEDFORD    CLOUDY    39  36  89 VRB6      29.88S                  
$$

MAZALL-150500-
CAPE COD AND THE ISLANDS
  
CITY           SKY/WX    TMP DP  RH WIND       PRES   REMARKS
FALMOUTH       CLOUDY    39  39 100 NE8       29.87R FOG              
HYANNIS        CLOUDY    41  39  93 N9        29.86S FOG              
CHATHAM        CLOUDY    41  39  93 CALM      29.88S FOG              
PROVINCETOWN   LGT RAIN  39  37  92 NE8       29.90R                  
NANTUCKET      CLOUDY    41  40  96 NE6       29.86R FOG              
MARTHAS VNYRD  CLOUDY    40  38  93 N7        29.87R FOG              
$$
 
MAZALL-150500-
CENTRAL AND WESTERN MASSACHUSETTS
  
CITY           SKY/WX    TMP DP  RH WIND       PRES   REMARKS
WORCESTER      FOG       33  31  92 NE5       29.87R VSB 1/4 WCI  29  
FITCHBURG      CLOUDY    34  34 100 N3        29.92R FOG              
ORANGE         CLOUDY    33  32  96 CALM      29.90S FOG              
SPRINGFIELD    CLOUDY    33  33  99 N3        29.89R FOG              
WESTFIELD      CLOUDY    33  33 100 N3        29.90R FOG              
NORTH ADAMS    CLOUDY    33  30  88 CALM      29.88S FOG              
PITTSFIELD     CLOUDY    32  32 100 CALM      29.85S FOG              
$$
 
RIZALL-150500-
RHODE ISLAND
  
CITY           SKY/WX    TMP DP  RH WIND       PRES   REMARKS
PROVIDENCE     CLOUDY    39  36  89 N9        29.90R                  
NEWPORT        CLOUDY    38  35  89 N7        29.87S FOG              
BLOCK ISLAND   MOCLDY    39  36  89 NE9       29.88R                  
SMITHFIELD     CLOUDY    34  34 100 NE8       29.89R FOG     WCI  27  
WESTERLY       CLOUDY    38  34  85 N5        29.88R                  
$$
 
CTZALL-150500-
CONNECTICUT
  
CITY           SKY/WX    TMP DP  RH WIND       PRES   REMARKS
BRADLEY INTL   CLOUDY    34  32  92 N3        29.90R FOG              
HARTFORD       CLOUDY    36  33  89 N5        29.91R FOG              
BRIDGEPORT     NOT AVBL                                               
DANBURY        CLOUDY    30  27  88 CALM      29.89S                  
GROTON         CLOUDY    40  35  83 N6        29.88R                  
NEW HAVEN      CLOUDY    39  34  82 N7        29.88S HAZE             
CHESTER        CLOUDY    37  34  87 N5        29.88R FOG              
MERIDEN        CLOUDY    35  31  85 CALM      29.90R                  
WILLIMANTIC    CLOUDY    37  34  89 N3        29.89R FOG              
OXFORD         CLOUDY    33  33 100 N6        29.88R FOG     WCI  28  
$$

MEZ002-015-021-024-NHZ003-005-008-011-012-014-VTZ005-008-150500-
NORTHERN NEW ENGLAND
  
CITY           SKY/WX    TMP DP  RH WIND       PRES   REMARKS
PORTLAND ME    CLOUDY    33  26  75 N6        29.93R WCI  28          
BANGOR ME      CLOUDY    31  25  78 NW3       29.93R                  
CONCORD NH     CLOUDY    31  26  82 CALM      29.92R                  
MANCHESTER NH  CLOUDY    35  32  88 CALM      29.91R FOG              
NASHUA NH      CLOUDY    34  34 100 CALM      29.93R FOG              
PORTSMOUTH NH  CLOUDY    34  31  88 CALM      29.90S FOG              
JAFFREY NH     CLOUDY    32  28  85 CALM      29.88R FOG              
KEENE NH       CLOUDY    31  30  96 CALM      29.91R FOG              
BURLINGTON VT  CLOUDY    33  27  78 CALM      29.93R                  
MT. WASHINGTON FOG       14  14 100 N5          N/A  VSB 1/8 WCI   6  
$$

NYZ052-076-150500-
EASTERN NEW YORK
  
CITY           SKY/WX    TMP DP  RH WIND       PRES   REMARKS
ALBANY         CLOUDY    30  29  96 CALM      29.91R                  
NEW YORK CITY  MOCLDY    43  33  68 N5        29.89R                  
$$
 
ANZALL-150500-
MARINE OBSERVATIONS
  
STATION/POSITION TIME  TEMP    WIND        PRES    VSBY  WAVE
                       AIR SEA DIR/SP/G                  HT/PER
                 (UTC) (F)     (DEG/KT/KT) (MB)    (MI)  (FT/S)
BOSTON BUOY      0340   39 43   30/  8/ 10 1012.9R
BUZZARDS BAY     0300           20/ 13/ 15 1012.2R
NANTUCKET SOUND  0340      41   10/  8/ 10   N/A
MASS BAY-STELLWA 0304   40      40/  8/  8 1011.2R  1 7/8  1/ 8
ISLE OF SHOALS   0300   38      20/  4/  5 1012.5R
S OF BLOCK IS    0326      47                N/A           2/ 8
$$

......................KEY.........................
  SKY/WX - SKY CONDITION/PRESENT WEATHER
  TMP    - TEMPERATURE IN FAHRENHEIT
  DWPT   - DEWPOINT IN FAHRENHEIT
  RH     - RELATIVE HUMIDITY IN PERCENT
  WIND   - DIRECTION AND SPEED IN MPH
  PRES   - MEAN SEA LEVEL PRESSURE IN INCHES OF HG
  WCI    - WIND CHILL INDEX
  VSB    - VISIBILITY IN MILES
  HX     - HEAT INDEX
  TC     - TEMPERATURE IN CELSIUS
  VRB    - VARIABLE WIND DIRECTION
  N/A    - NOT AVAILABLE
  
      

Other recent Regional Weather Roundups

Thu Jan 21, 9:04am

Thu Jan 21, 7:04am

Thu Jan 21, 6:04am

Thu Jan 21, 5:04am

Thu Jan 21, 4:04am

Thu Jan 21, 3:04am

Thu Jan 21, 2:04am

Thu Jan 21, 1:04am

Thu Jan 21, 12:04am

Wed Jan 20, 11:04pm

Wed Jan 20, 10:05pm

Wed Jan 20, 9:04pm

Wed Jan 20, 8:04pm

Wed Jan 20, 7:04pm

Wed Jan 20, 6:05pm

Wed Jan 20, 5:05pm

Wed Jan 20, 1:04pm

Wed Jan 20, 12:04pm

Wed Jan 20, 11:04am

Wed Jan 20, 10:04am

Wed Jan 20, 9:05am

Wed Jan 20, 8:04am

Wed Jan 20, 7:04am

Wed Jan 20, 6:04am

Wed Jan 20, 5:04am

Wed Jan 20, 4:04am

Wed Jan 20, 3:05am

Wed Jan 20, 2:04am

Wed Jan 20, 1:04am

Wed Jan 20, 12:04am

Tue Jan 19, 11:04pm

Tue Jan 19, 10:04pm

Tue Jan 19, 9:04pm

Tue Jan 19, 8:04pm

Tue Jan 19, 7:04pm

Tue Jan 19, 6:05pm

Tue Jan 19, 5:04pm

Tue Jan 19, 4:05pm

Tue Jan 19, 3:04pm

Tue Jan 19, 2:04pm

Tue Jan 19, 1:04pm

Tue Jan 19, 12:05pm

Tue Jan 19, 11:04am

Tue Jan 19, 10:05am

Tue Jan 19, 9:04am

Tue Jan 19, 8:04am

Tue Jan 19, 7:04am

Tue Jan 19, 6:04am

Tue Jan 19, 5:04am

Tue Jan 19, 4:04am

Tue Jan 19, 3:04am

Tue Jan 19, 2:04am

Tue Jan 19, 1:04am

Tue Jan 19, 12:04am

Mon Jan 18, 11:04pm

Mon Jan 18, 10:04pm

Mon Jan 18, 9:04pm

Mon Jan 18, 8:05pm

Mon Jan 18, 7:04pm

Mon Jan 18, 6:05pm

Mon Jan 18, 5:04pm

Mon Jan 18, 4:04pm

Mon Jan 18, 3:04pm

Mon Jan 18, 2:04pm

Mon Jan 18, 1:04pm

Mon Jan 18, 12:04pm

Mon Jan 18, 11:04am

Mon Jan 18, 10:04am

Mon Jan 18, 9:04am

Mon Jan 18, 8:04am

Mon Jan 18, 7:04am

Mon Jan 18, 6:04am

Mon Jan 18, 5:04am

Mon Jan 18, 4:04am

Mon Jan 18, 3:04am

Mon Jan 18, 2:04am

Mon Jan 18, 1:04am

Mon Jan 18, 12:04am

Sun Jan 17, 11:04pm

Sun Jan 17, 10:04pm

Sun Jan 17, 9:04pm

Sun Jan 17, 8:04pm

Sun Jan 17, 7:04pm

Sun Jan 17, 6:04pm

Sun Jan 17, 5:04pm

Sun Jan 17, 4:05pm

Sun Jan 17, 3:04pm

Sun Jan 17, 2:04pm

Sun Jan 17, 1:04pm

Sun Jan 17, 12:04pm

Sun Jan 17, 11:04am

Sun Jan 17, 10:04am

Sun Jan 17, 9:04am

Sun Jan 17, 8:04am

Sun Jan 17, 7:04am

Sun Jan 17, 6:04am

Sun Jan 17, 5:04am

Sun Jan 17, 4:04am

Sun Jan 17, 3:04am

Sun Jan 17, 2:04am

Sun Jan 17, 1:04am

Sun Jan 17, 12:04am

Sat Jan 16, 11:05pm

Sat Jan 16, 10:04pm

Sat Jan 16, 9:04pm

Sat Jan 16, 8:05pm

Sat Jan 16, 7:04pm

Sat Jan 16, 6:04pm

Sat Jan 16, 5:05pm

Sat Jan 16, 4:05pm

Sat Jan 16, 3:05pm

Sat Jan 16, 2:04pm

Sat Jan 16, 1:04pm

Sat Jan 16, 12:04pm

Sat Jan 16, 11:04am

Sat Jan 16, 10:05am

Sat Jan 16, 9:04am

Sat Jan 16, 8:04am

Sat Jan 16, 7:04am

Sat Jan 16, 6:04am

Sat Jan 16, 5:04am

Sat Jan 16, 4:04am

Sat Jan 16, 3:05am

Sat Jan 16, 2:04am

Sat Jan 16, 1:04am

Sat Jan 16, 12:05am

Fri Jan 15, 11:05pm

Fri Jan 15, 10:04pm

Fri Jan 15, 9:04pm

Fri Jan 15, 8:04pm

Fri Jan 15, 7:05pm

Fri Jan 15, 6:05pm

Fri Jan 15, 5:05pm

Fri Jan 15, 4:05pm

Fri Jan 15, 3:04pm

Fri Jan 15, 2:05pm

Fri Jan 15, 1:04pm

Fri Jan 15, 12:05pm

Fri Jan 15, 11:04am

Fri Jan 15, 10:04am

Fri Jan 15, 9:05am

Fri Jan 15, 8:04am

Fri Jan 15, 7:04am

Fri Jan 15, 6:04am

Fri Jan 15, 5:05am

Fri Jan 15, 4:04am

Fri Jan 15, 3:04am

Fri Jan 15, 2:04am

Fri Jan 15, 1:04am

Fri Jan 15, 12:05am

Thu Jan 14, 10:04pm

Thu Jan 14, 9:04pm

Thu Jan 14, 8:05pm

Thu Jan 14, 7:04pm

Thu Jan 14, 6:04pm

Thu Jan 14, 5:04pm

Thu Jan 14, 4:05pm

Thu Jan 14, 3:04pm

Thu Jan 14, 2:04pm

Thu Jan 14, 1:04pm

Thu Jan 14, 12:05pm

Thu Jan 14, 11:05am

Thu Jan 14, 10:04am

Thu Jan 14, 9:04am

Thu Jan 14, 8:04am

Thu Jan 14, 7:04am

Thu Jan 14, 6:04am

Thu Jan 14, 5:04am

Thu Jan 14, 4:04am

Thu Jan 14, 3:04am

Thu Jan 14, 2:04am

Thu Jan 14, 1:04am

Thu Jan 14, 12:04am

Wed Jan 13, 11:04pm

Wed Jan 13, 10:04pm

Wed Jan 13, 9:04pm

Wed Jan 13, 8:05pm

Wed Jan 13, 7:04pm

Wed Jan 13, 6:04pm

Wed Jan 13, 5:04pm

Wed Jan 13, 4:04pm

Wed Jan 13, 3:05pm

Wed Jan 13, 2:04pm

Wed Jan 13, 1:04pm

Wed Jan 13, 12:04pm

Wed Jan 13, 11:04am

Wed Jan 13, 10:04am

Wed Jan 13, 9:05am

Wed Jan 13, 8:04am

Wed Jan 13, 7:04am

Wed Jan 13, 6:04am

Wed Jan 13, 5:04am

Wed Jan 13, 4:04am

Wed Jan 13, 3:04am

Wed Jan 13, 2:04am

Wed Jan 13, 1:04am

Wed Jan 13, 12:05am

Tue Jan 12, 11:04pm

Tue Jan 12, 10:04pm

Tue Jan 12, 9:04pm

Tue Jan 12, 8:05pm

Tue Jan 12, 7:04pm

Meta data:

ID: 0b10e754-07fa-4659-9376-cda267fea2a4
Link: https://api.weather.gov/products/0b10e754-07fa-4659-9376-cda267fea2a4